Location: Ferintosh
(52.7647°N, 112.9692°W)
Time: 14:12:04
(UTC+00:00)

Transit 2A - Pass Details

Date: 26 May 2024
Orbit: 592 x 959 km, 66.7° (Epoch: 23 June)

Event Time Altitude Azimuth Distance (km) Brightness Sun altitude
Rises 09:18:33 0° 294° (WNW) 3,162 9.2 -12.3°
Reaches altitude 10° 09:21:31 10° 313° (NW) 2,311 8.7 -12.1°
Maximum altitude 09:25:18 19° 358° (N) 1,840 8.8 -11.8°
Drops below altitude 10° 09:29:20 10° 43° (NE) 2,490 10.0 -11.5°
Sets 09:32:42 0° 61° (ENE) 3,495 10.5 -11.3°
